Volver al catálogo

STARLINK-3135

ActivoComunicacionesVLEO
NORAD 49424·PAYLOAD·🇺🇸 United States

Lanzado Nov 13, 2021 desde Cape Canaveral Space Force Station

Loading…

Próximos Pases (próximas 24 horas)

TLE

ActualizadoSource: CelesTrak SupGP

Época: Sep 14, 2026, 13:19 UTC

1 49424C 21104S   26257.55534722 -.00008469  00000+0 -24231-3 0  2576
2 49424  53.1590  89.8234 0001279  96.6418 139.9259 15.35402141    10

Sigue STARLINK-3135 en tiempo real con AllMySat

Download on the App Store